This is the latest recevied weather packets stored in our database for station/object OK3MS-5. If no packets are shown the sender has not sent any weather packets the latest 10 day(s).
| Time | Temp. | Humidity | Pressure | Rain* | Wind** | Luminosity | Snow |
|---|---|---|---|---|---|---|---|
| 1787765404 | 22.78° C | 62% | 1015.3 hPa | 0 mm | - | 8 W/m² | - |
| 1787765105 | 23.33° C | 62% | 1015.2 hPa | 0 mm | - | 16 W/m² | - |
| 1787764803 | 23.33° C | 60% | 1015.2 hPa | 0 mm | - | 21 W/m² | - |
| 1787764504 | 23.33° C | 60% | 1015.2 hPa | 0 mm | - | 25 W/m² | - |
| 1787764202 | 23.33° C | 61% | 1015.2 hPa | 0 mm | - | 34 W/m² | - |
| 1787763907 | 23.33° C | 60% | 1015.1 hPa | 0 mm | - | 36 W/m² | - |
| 1787763606 | 23.33° C | 58% | 1015.1 hPa | 0 mm | - | 38 W/m² | - |
| 1787763306 | 23.33° C | 58% | 1015.2 hPa | 0 mm | - | 42 W/m² | - |
| 1787763003 | 23.89° C | 58% | 1015.1 hPa | 0 mm | - | 38 W/m² | - |
| 1787762704 | 23.33° C | 60% | 1015.2 hPa | 0 mm | - | 34 W/m² | - |
| 1787762404 | 23.89° C | 59% | 1015.1 hPa | 0 mm | - | 27 W/m² | - |
| 1787762105 | 23.89° C | 58% | 1015.1 hPa | 0 mm | - | 39 W/m² | - |
| 1787761804 | 23.89° C | 56% | 1015.1 hPa | 0 mm | - | 45 W/m² | - |
| 1787761503 | 24.44° C | 57% | 1015 hPa | 0 mm | - | 47 W/m² | - |
| 1787761206 | 23.89° C | 57% | 1015.2 hPa | 0 mm | - | 58 W/m² | - |
| 1787760904 | 23.89° C | 56% | 1015.2 hPa | 0 mm | - | 67 W/m² | - |
| 1787760603 | 23.89° C | 56% | 1015.2 hPa | 0 mm | - | 62 W/m² | - |
| 1787760305 | 23.89° C | 56% | 1015.1 hPa | 0 mm | - | 58 W/m² | - |
| 1787760004 | 23.89° C | 56% | 1015.2 hPa | 0 mm | - | 75 W/m² | - |
| 1787759703 | 23.89° C | 56% | 1015.2 hPa | 0 mm | - | 113 W/m² | - |
| 1787759105 | 24.44° C | 55% | 1015.1 hPa | 0 mm | - | 106 W/m² | - |
| 1787758805 | 24.44° C | 55% | 1015.2 hPa | 0 mm | - | 92 W/m² | - |
| 1787758503 | 24.44° C | 54% | 1015.1 hPa | 0 mm | - | 132 W/m² | - |
| 1787758203 | 24.44° C | 54% | 1015.2 hPa | 0 mm | - | 122 W/m² | - |
| 1787757903 | 24.44° C | 54% | 1015.1 hPa | 0 mm | - | 100 W/m² | - |
* Rain latest hour (hover to see other rain measurements)
** Current wind speed in m/s (hover to see current wind gust speed)